GEFSNGP_con_prob3kmehi_282.txt.gz
EHI
0 0 0 0 0 0 0 0 0 0 0 1 2 4 5 5 6 8 9 8 8 8 9 11 12 12 11 10 8 6 5 6 6 5 4 3 3 4 4 3 5 9 11 11
0 0 0 0 0 0 0 0 0 0 0 1 3 4 6 7 7 8 10 11 11 10 10 10 11 12 12 10 9 7 6 6 6 6 5 3 3 3 2 2 4 8 10 10
0 0 0 0 0 0 0 0 0 0 1 2 3 4 6 8 7 9 11 12 12 10 9 8 9 12 13 12 10 8 7 7 6 5 5 5 5 5 3 3 4 6 6 7
0 0 0 0 0 0 0 0 0 0 1 3 4 4 5 6 6 7 9 10 9 7 6 6 8 11 13 14 11 8 7 7 6 4 5 8 9 8 6 6 7 5 5 5
0 0 0 0 0 0 0 0 0 1 2 4 5 6 5 4 5 6 7 7 7 5 3 3 6 8 11 12 10 8 6 5 4 5 7 10 11 11 10 9 8 6 5 5
0 0 0 0 0 0 0 0 1 2 4 5 6 6 5 4 4 6 7 6 4 3 2 1 3 5 6 8 9 8 7 6 5 6 8 11 12 12 12 10 7 5 5 4
0 0 0 0 0 0 0 0 1 2 4 5 5 5 5 5 5 7 7 6 4 3 1 1 2 3 5 7 8 8 8 8 7 7 10 12 12 11 10 9 7 6 5 3
0 0 0 0 0 0 0 0 1 3 4 5 5 6 6 6 6 6 6 5 5 4 3 3 3 4 6 7 9 10 10 10 10 10 11 13 13 11 10 9 9 9 7 4
0 0 0 0 0 0 0 0 1 3 5 6 7 8 7 6 5 5 5 4 5 5 5 4 4 5 5 7 9 12 13 13 13 13 13 13 13 12 11 10 11 11 8 6
0 0 0 0 0 0 0 1 2 4 6 7 8 9 8 7 6 6 5 4 3 4 5 4 3 4 4 5 8 12 13 13 13 13 14 13 12 12 12 12 12 12 10 9
0 0 0 0 1 1 1 2 3 6 7 7 8 8 7 6 6 6 5 4 3 3 3 3 2 2 3 5 7 10 11 11 11 12 13 12 11 10 10 11 11 11 10 9
0 0 0 0 1 2 2 3 5 8 9 7 6 6 5 3 3 3 4 4 3 2 2 2 3 3 4 6 7 8 9 10 10 11 11 11 9 8 8 8 7 6 5 6
0 0 0 0 1 2 3 4 6 8 8 7 5 4 3 1 1 1 3 4 4 3 2 4 6 6 6 6 7 7 9 9 9 9 9 9 8 8 7 7 5 3 2 2
0 0 0 0 0 1 3 4 5 5 5 5 4 2 2 1 0 1 3 5 6 4 4 5 7 7 7 7 6 6 7 7 7 7 7 7 6 7 9 8 7 6 4 2
0 0 0 0 0 1 2 3 3 3 3 3 2 1 1 1 1 2 4 6 6 5 4 6 6 6 6 6 6 6 5 5 5 6 7 6 6 7 8 8 9 10 8 5
0 0 0 0 0 0 1 1 2 1 1 1 0 0 1 2 2 3 5 6 5 4 4 4 4 3 3 4 5 6 6 4 4 6 8 9 9 9 8 8 9 11 11 10
0 0 0 0 0 0 0 0 0 0 0 0 0 0 1 2 3 3 4 3 3 3 2 2 2 2 2 2 3 6 7 5 3 5 9 10 10 10 9 9 9 10 11 11
0 0 0 0 0 0 0 0 0 0 0 0 1 1 2 3 3 3 2 1 1 1 1 1 2 3 3 2 3 4 6 6 5 5 7 8 8 8 9 9 9 9 8 8
0 0 0 0 0 0 0 0 0 0 0 1 2 4 4 4 3 3 2 1 1 0 0 1 3 4 4 5 5 5 5 6 6 5 4 5 5 7 8 9 9 7 6 6
0 0 0 0 0 0 0 0 0 0 0 1 2 4 3 2 2 2 2 2 1 0 0 1 2 2 3 4 5 5 6 6 5 4 3 3 5 7 8 9 8 5 4 4
0 0 0 0 0 0 0 0 0 0 0 0 2 3 2 1 1 1 1 1 1 0 0 1 1 1 1 1 2 3 5 5 4 2 1 2 5 7 8 8 6 4 3 3
0 0 0 0 0 0 0 0 0 0 0 1 2 2 1 0 0 0 0 0 0 0 0 0 0 0 0 0 0 1 3 3 3 2 1 2 5 6 6 5 4 3 3 3
0 0 0 0 0 0 0 0 0 0 0 1 2 1 0 0 0 0 0 0 0 0 0 0 0 0 0 0 0 0 1 2 1 1 2 2 3 4 3 2 1 2 2 2
0 0 0 0 0 0 0 0 0 0 1 1 1 0 0 0 0 0 0 0 0 0 0 0 0 0 0 0 0 0 0 0 0 1 1 1 1 1 1 0 0 1 1 1
0 0 0 0 0 0 0 0 1 1 1 0 0 0 0 0 0 0 0 0 0 0 0 0 0 0 0 0 0 1 1 0 0 0 0 0 0 0 0 0 0 0 0 0
0 0 0 0 0 0 0 0 1 1 0 0 0 0 0 0 0 0 0 0 0 0 0 0 0 0 0 0 1 2 2 1 0 0 0 0 0 0 0 0 0 0 0 0
0 0 0 0 0 0 0 0 1 0 0 0 0 0 0 0 0 0 0 0 0 0 0 0 0 0 0 0 1 2 2 1 0 0 0 0 0 0 0 0 0 0 0 0

GEFSNGP_con_prob3kmehi_288.txt.gz
EHI
0 0 0 0 0 0 0 0 0 0 1 4 8 9 9 6 5 7 13 18 23 29 34 35 34 31 29 27 26 25 21 17 16 16 16 18 18 18 17 18 18 18 19 19
0 0 0 0 0 0 0 0 0 0 1 5 9 11 11 8 5 6 11 16 21 26 32 35 35 33 32 29 28 26 22 17 16 16 16 17 18 19 19 20 21 20 20 19
0 0 0 0 0 0 0 0 0 0 1 5 10 12 12 9 6 6 10 14 18 23 27 30 30 32 33 31 29 26 22 18 17 18 19 18 18 19 20 21 21 21 19 18
0 0 0 0 0 0 0 0 0 0 1 5 10 12 12 10 8 9 12 15 18 21 24 25 26 28 31 32 30 26 23 21 20 21 22 21 20 20 21 22 22 20 18 16
0 0 0 0 0 0 0 0 0 1 3 7 10 11 12 14 12 12 15 17 18 19 21 24 25 27 30 32 31 29 26 23 22 22 21 20 21 23 24 25 24 21 18 16
0 0 0 0 0 0 0 0 1 3 7 10 11 11 14 17 16 16 17 19 18 17 20 23 25 27 29 31 31 31 28 25 25 25 23 21 22 24 25 24 23 21 19 18
0 0 0 0 1 1 2 3 5 7 11 13 13 15 18 20 19 19 21 23 21 20 21 23 25 27 27 28 29 29 27 26 28 30 27 25 25 25 24 22 20 20 19 17
0 0 0 2 3 5 6 9 10 11 13 16 18 19 21 22 20 20 22 24 25 24 23 23 25 27 26 26 27 27 26 26 28 31 29 28 29 28 25 23 20 19 18 17
0 1 2 4 7 8 9 10 11 12 15 19 22 22 22 21 20 20 22 24 25 25 24 24 25 26 26 25 25 25 24 24 26 27 26 26 27 26 25 22 18 17 17 17
2 3 5 7 8 9 10 11 11 12 16 21 23 23 22 22 21 20 22 25 25 24 24 24 25 25 24 24 23 22 21 22 22 22 22 23 23 22 22 20 17 15 16 16
5 6 7 9 10 11 13 13 12 13 16 20 23 22 22 23 23 22 23 25 25 25 24 24 24 24 23 23 22 20 19 19 19 18 18 19 19 18 16 15 13 12 13 14
6 7 9 11 11 12 14 15 15 15 15 18 19 20 21 22 21 21 22 23 24 24 23 22 21 21 22 23 22 19 18 18 17 17 17 17 16 14 10 8 6 6 7 7
7 8 10 11 12 13 13 14 15 16 15 16 16 16 18 18 16 17 18 19 20 20 19 19 19 18 18 19 20 19 18 17 15 16 17 16 15 13 9 5 3 3 2 2
7 8 10 10 11 12 12 13 13 14 14 14 14 14 14 13 11 12 14 14 16 17 16 16 17 17 15 16 18 19 19 17 15 15 16 16 14 12 11 8 7 6 4 2
5 6 9 10 11 11 11 10 10 10 10 11 12 12 12 11 11 12 13 13 13 14 14 15 17 17 15 15 16 18 18 17 16 15 14 13 12 10 10 10 10 9 8 7
4 4 7 9 10 9 9 8 7 8 9 10 10 10 10 12 12 12 13 12 11 12 13 14 15 14 13 13 13 14 15 14 14 14 13 11 10 9 8 9 10 10 10 10
2 2 4 7 8 7 6 6 6 7 9 9 8 7 9 10 11 12 13 12 10 11 12 12 12 12 11 10 9 9 9 9 9 10 10 10 10 9 9 9 10 10 10 10
1 1 2 4 5 6 5 4 4 6 8 6 5 5 6 8 10 12 12 10 9 10 10 10 9 9 8 7 6 5 5 6 6 7 7 8 9 9 10 10 10 9 9 9
2 1 1 3 5 6 6 4 4 4 4 4 3 3 4 6 8 10 11 9 9 10 10 9 8 7 6 5 4 4 4 4 5 6 6 7 8 9 10 10 9 9 7 7
3 3 3 5 7 7 6 4 3 3 3 3 3 3 3 4 5 8 9 9 9 9 9 8 7 6 6 4 4 3 3 3 4 4 5 6 7 8 8 8 8 7 6 5
3 4 5 7 7 6 4 3 3 3 3 3 3 3 3 3 4 6 8 8 7 8 8 7 6 6 4 3 3 3 2 2 2 3 3 4 5 5 5 6 7 7 6 5
2 3 4 5 5 3 1 1 1 2 2 2 2 2 2 2 3 3 4 4 4 4 4 5 4 3 2 1 1 1 1 1 1 1 1 1 1 2 3 4 5 5 5 5
2 2 2 2 1 1 0 0 0 1 1 1 1 1 1 1 1 1 1 1 1 1 1 1 1 1 0 0 0 0 0 0 0 0 0 0 0 0 2 3 3 2 3 3
2 1 0 0 0 0 0 0 0 0 0 0 0 0 0 0 0 0 0 0 0 0 0 0 0 0 0 0 0 0 0 0 0 0 0 0 0 1 2 2 1 0 1 1
1 1 0 0 0 0 0 0 0 0 0 0 0 0 0 0 0 0 0 0 0 0 0 0 0 0 0 0 0 0 0 0 0 0 0 0 0 1 2 1 0 0 0 0
0 0 0 0 0 0 0 0 0 0 0 0 0 0 0 0 0 0 0 0 0 0 0 0 0 0 0 0 0 0 0 0 0 0 0 0 0 0 1 1 1 1 1 1
0 0 0 0 0 0 0 0 0 0 0 0 0 0 0 0 0 0 0 0 0 0 0 0 0 0 0 0 0 0 0 0 0 0 0 0 0 0 1 2 2 2 2 2

GEFSNGP_con_prob3kmehi_294.txt.gz
EHI
0 0 0 0 0 0 0 0 0 0 2 6 8 9 11 12 12 14 21 27 34 43 50 56 56 55 52 50 50 50 47 42 40 37 34 31 30 28 25 23 22 22 23 23
0 0 0 0 0 0 0 0 0 0 3 7 11 11 12 13 14 16 23 28 33 41 49 54 54 53 52 51 50 50 48 43 41 40 37 35 34 32 29 26 25 26 27 26
0 0 0 0 0 0 1 1 2 2 5 10 14 14 13 16 18 20 24 29 33 40 47 49 48 47 49 49 50 50 47 42 39 39 38 38 36 34 32 30 27 28 29 28
0 0 0 1 1 2 2 3 4 5 7 10 14 15 16 21 26 27 28 31 35 38 41 41 41 43 45 46 49 49 45 40 38 37 36 35 35 34 35 33 29 27 27 27
0 0 0 1 2 2 2 3 5 7 8 9 12 14 19 27 31 32 32 33 34 33 35 37 41 44 45 45 46 46 44 42 41 39 36 34 35 37 38 37 34 30 28 27
0 0 1 2 2 1 2 4 6 8 9 11 14 17 24 32 35 34 35 34 32 31 34 38 42 44 44 43 42 42 42 43 44 43 40 37 36 37 39 40 38 34 31 29
0 1 2 3 3 3 6 10 11 12 14 18 23 27 33 37 38 38 37 32 31 34 37 39 41 42 43 42 41 40 39 40 42 43 40 38 36 36 37 39 39 37 33 31
2 3 5 7 8 9 13 15 15 17 22 27 31 35 37 38 38 39 37 32 31 34 37 38 39 41 42 41 39 37 36 36 38 39 36 35 35 35 35 36 38 37 34 31
5 5 9 13 14 14 14 14 15 20 26 32 34 35 36 36 36 37 36 33 30 30 34 36 38 40 40 38 36 35 35 34 35 35 33 33 34 35 35 35 35 34 30 28
8 8 10 13 15 15 13 12 14 18 23 28 31 32 33 34 35 35 36 34 30 30 33 36 38 39 37 34 33 33 34 33 32 31 31 32 33 33 31 31 30 28 25 23
9 8 8 10 12 14 13 12 13 14 17 22 27 28 29 33 34 34 35 34 32 32 33 34 35 36 35 34 32 32 32 31 30 28 28 29 29 26 23 22 21 21 20 20
9 8 8 9 10 11 13 13 14 15 16 20 24 25 27 30 32 32 32 33 33 33 32 31 31 31 31 30 30 31 31 30 28 27 26 26 23 19 15 12 10 10 11 12
13 11 9 9 8 9 12 15 16 17 20 22 23 24 27 30 30 28 28 29 30 28 26 25 26 26 26 26 28 29 29 27 26 26 27 25 22 19 15 11 7 5 3 3
18 15 12 11 10 9 10 14 16 19 21 22 21 21 25 28 26 24 25 25 24 21 19 18 19 20 21 22 24 26 24 21 21 23 24 23 22 21 20 17 13 8 4 2
16 14 13 14 14 11 10 13 16 19 20 20 18 18 20 22 21 21 22 21 20 17 15 15 16 16 17 18 21 22 19 16 16 18 19 18 18 19 19 19 16 11 7 5
11 12 15 17 16 14 13 14 16 17 17 16 16 16 16 17 17 18 18 19 19 17 16 16 16 16 16 17 19 18 15 13 13 14 14 13 13 15 17 17 15 11 9 8
11 13 17 17 16 14 14 15 15 16 16 15 15 14 14 14 16 18 18 18 19 18 17 16 16 16 16 16 16 15 12 11 11 11 12 12 12 12 14 14 13 11 10 10
12 14 14 13 13 14 14 14 14 14 14 12 12 13 13 14 16 19 18 17 18 18 16 14 13 13 14 13 13 13 12 11 10 10 11 11 11 10 10 10 10 10 11 12
11 12 11 10 11 13 13 12 12 11 10 8 9 11 12 13 14 15 16 15 15 16 15 12 11 11 11 11 10 11 10 8 8 9 9 8 7 7 7 7 8 9 11 12
10 11 11 10 9 10 9 9 8 8 6 6 9 11 12 14 14 13 12 11 11 12 11 9 9 10 9 8 7 8 7 6 6 7 6 5 4 4 5 6 6 8 10 11
11 10 9 7 7 6 6 6 6 7 6 7 10 12 13 14 14 12 10 9 9 9 8 6 7 9 8 5 4 5 6 5 5 5 4 3 3 2 2 4 5 5 8 10
10 9 7 5 4 5 5 7 7 7 6 7 9 11 12 11 9 9 8 8 7 6 5 4 4 5 4 2 2 4 5 4 3 3 3 2 2 1 1 2 3 3 5 7
10 8 6 5 4 5 7 8 7 6 6 7 7 8 8 6 4 4 4 5 4 2 2 2 2 1 1 0 1 2 3 2 1 1 1 1 1 0 0 1 1 1 2 3
9 7 6 5 4 5 7 7 5 5 5 5 5 6 4 2 1 1 1 1 1 0 0 0 0 0 0 0 0 1 1 1 0 0 0 0 0 0 0 0 0 0 0 1
8 7 6 5 4 4 6 5 4 3 3 3 2 2 1 0 0 0 0 0 0 0 0 0 0 0 0 0 0 0 0 0 0 0 0 0 0 0 0 0 1 1 0 0
8 7 6 5 3 3 3 3 2 1 1 1 0 0 0 0 0 0 0 0 0 0 0 0 0 0 0 0 0 0 0 0 0 0 0 0 1 1 1 1 1 1 0 0
8 7 6 4 2 1 1 1 1 0 0 0 0 0 0 0 0 0 0 0 0 0 0 0 0 0 0 0 0 0 0 0 0 0 0 1 2 3 2 1 1 0 0 0

GEFSNGP_con_prob3kmehi_300.txt.gz
EHI
0 0 1 1 0 0 0 0 0 0 0 0 1 4 10 17 22 25 25 23 20 19 20 21 22 23 23 22 23 23 21 19 16 13 13 13 13 15 16 14 13 13 13 14
0 0 1 2 1 1 1 0 0 0 0 1 2 6 12 19 26 29 27 25 23 21 22 23 23 24 23 22 22 22 22 20 18 16 16 16 15 16 16 14 13 13 13 12
0 0 1 2 2 2 2 2 2 2 2 5 7 10 14 21 28 31 30 27 24 22 22 23 24 25 24 21 21 22 22 20 19 19 19 19 17 17 16 15 14 15 15 13
0 0 0 1 1 1 2 4 4 3 5 10 14 15 17 21 25 29 30 27 22 19 17 18 21 23 21 20 19 20 21 20 20 20 20 21 19 18 17 17 16 16 15 14
0 0 0 0 1 1 1 4 5 5 8 15 18 19 19 20 23 27 28 23 16 13 11 12 16 19 18 18 18 19 19 20 20 20 20 21 21 19 18 17 16 16 15 12
0 0 0 1 2 1 1 2 4 6 11 16 19 20 19 21 24 26 24 17 11 9 9 11 15 17 17 17 17 17 16 16 17 17 18 19 20 20 19 18 17 17 14 11
0 0 0 1 2 2 1 1 4 7 12 16 19 20 21 23 24 22 19 14 10 11 13 16 17 17 17 15 15 13 11 11 12 13 14 15 16 18 19 18 16 16 13 10
1 0 0 1 2 2 2 4 7 9 14 18 21 21 22 24 23 18 15 12 12 13 16 18 18 18 17 14 11 9 8 8 9 12 13 13 15 18 20 20 18 16 14 12
2 1 0 1 2 3 5 9 11 13 16 19 19 19 20 22 20 17 14 12 11 12 14 16 17 18 17 13 10 9 8 8 9 12 14 15 17 19 21 21 20 17 15 14
3 2 2 4 5 5 8 12 14 15 16 18 17 14 14 16 17 17 15 13 12 12 12 13 15 16 17 15 13 12 11 10 10 12 14 16 18 19 19 20 19 17 14 13
6 5 5 5 7 8 11 13 14 13 13 15 15 11 9 10 12 14 14 13 12 11 11 11 13 15 17 17 16 14 13 12 11 11 14 15 15 15 14 14 15 14 12 11
7 7 6 6 7 10 12 13 13 13 13 13 12 10 8 8 8 10 11 11 10 9 9 11 12 13 15 16 16 16 15 13 10 10 12 13 12 9 7 6 7 8 7 7
7 7 7 7 8 10 12 12 13 14 14 12 10 9 9 8 6 7 8 7 6 8 10 11 12 12 13 13 13 14 14 12 10 10 11 11 9 7 5 3 3 3 2 2
6 7 8 7 8 11 13 13 14 14 12 10 8 7 7 6 4 4 5 5 5 7 9 11 11 11 11 11 10 10 10 10 11 11 12 11 9 9 7 6 5 4 2 1
6 7 8 9 10 12 14 15 14 11 9 7 6 5 4 3 1 1 3 4 5 5 7 7 7 8 9 9 9 8 8 9 10 11 11 11 10 9 8 7 6 6 4 3
8 9 9 10 11 13 13 13 11 8 6 5 4 2 1 1 0 0 1 4 6 6 5 4 4 5 7 8 8 8 9 9 9 10 10 10 10 9 7 5 5 5 4 4
9 10 10 10 10 11 11 9 8 6 4 2 2 1 0 0 0 1 2 4 7 7 5 4 4 5 6 6 6 7 7 7 8 9 10 9 9 8 6 4 3 3 3 2
9 10 10 8 7 8 7 7 6 4 2 1 1 1 1 1 1 2 4 5 7 6 5 5 5 5 4 4 4 4 5 6 8 9 9 8 7 6 5 3 2 2 1 0
10 9 8 6 5 5 5 4 2 1 1 0 1 2 2 2 3 3 4 5 5 5 4 4 4 4 3 3 3 3 4 5 7 8 7 6 5 3 2 1 0 0 0 0
8 7 5 4 4 4 3 2 0 0 0 0 1 2 3 3 4 4 4 4 4 4 3 3 3 3 3 3 3 3 3 4 5 4 4 3 3 2 1 0 0 0 0 0
4 4 4 4 3 1 1 0 0 0 0 0 1 2 3 4 5 4 3 3 2 3 3 3 3 3 3 3 3 3 3 3 3 2 1 1 1 1 1 0 0 0 0 0
3 3 4 3 1 0 0 0 0 0 0 0 0 2 4 5 5 3 1 1 1 1 2 2 2 3 3 3 3 3 3 2 1 1 0 0 0 0 1 0 0 0 0 0
2 1 1 1 0 0 0 0 0 0 0 0 1 1 3 4 3 2 0 0 0 0 1 1 1 1 2 2 2 2 1 1 0 0 0 0 0 0 0 0 0 0 0 0
1 0 0 0 0 0 0 0 0 0 0 0 1 1 1 2 1 1 0 0 0 0 0 0 0 0 1 1 1 1 0 0 0 0 0 0 0 0 0 0 0 0 0 0
0 0 0 0 0 0 0 0 0 0 0 0 0 0 0 0 0 0 0 0 0 0 0 0 0 0 0 0 0 0 0 0 0 0 0 0 0 0 0 0 0 0 0 0
0 0 0 0 0 0 0 0 0 0 0 0 0 0 0 0 0 0 0 0 0 0 0 0 0 0 0 0 0 0 0 0 0 0 0 0 0 0 0 0 0 0 0 0
0 0 0 0 0 0 0 0 0 0 0 0 0 0 0 0 0 0 0 0 0 0 0 0 0 0 0 0 0 0 0 0 0 0 0 0 0 0 0 0 0 0 0 0

GEFSNGP_con_prob3kmehi_306.txt.gz
EHI
0 0 0 0 0 0 0 0 0 0 0 0 2 6 9 11 14 16 17 18 18 16 11 7 7 6 4 3 2 2 3 4 4 5 5 5 4 4 4 5 6 5 4 5
0 1 1 0 0 0 0 0 0 0 0 0 2 6 9 12 14 17 18 20 21 19 14 8 6 5 5 5 5 5 5 6 5 5 5 5 4 4 4 6 7 6 5 5
1 1 1 0 0 0 0 0 0 0 0 1 3 6 9 11 13 15 17 20 21 19 15 8 5 4 5 7 7 8 8 8 7 5 5 5 5 5 6 8 9 8 6 5
0 1 1 0 0 0 0 0 0 0 0 2 5 8 10 10 11 13 16 18 16 14 11 7 4 3 4 6 7 9 10 10 8 6 5 4 6 7 7 9 9 8 6 6
0 0 0 0 0 0 0 0 0 1 2 4 7 9 10 10 11 12 14 13 10 8 6 4 3 3 3 5 6 7 9 8 7 6 5 4 5 6 6 7 7 7 6 6
0 0 0 0 0 0 0 0 0 2 4 5 6 8 9 9 10 10 9 8 6 4 4 3 3 2 2 4 4 5 5 5 5 6 7 5 4 4 5 5 6 6 6 6
0 0 0 0 0 0 0 0 0 1 3 4 4 6 8 9 9 8 6 4 3 2 2 3 3 2 2 4 4 3 3 3 4 5 7 7 5 4 4 4 5 6 7 7
0 0 0 0 1 0 0 0 1 1 3 3 4 7 9 11 12 11 7 4 3 2 1 1 2 2 2 4 5 4 3 3 4 5 7 7 6 5 4 3 4 7 9 10
0 0 0 0 0 0 0 1 2 3 3 3 6 10 12 12 14 13 9 5 3 2 1 1 1 1 2 3 5 4 3 4 4 5 6 7 7 6 5 5 6 8 10 12
0 0 0 0 0 0 0 1 3 3 3 4 7 11 13 12 12 11 9 6 4 3 3 3 2 2 2 3 4 3 3 4 5 6 7 8 9 9 9 9 9 9 10 11
0 0 0 0 1 1 2 2 3 3 4 6 9 11 11 9 8 6 6 5 5 4 3 3 3 3 3 4 3 2 2 3 5 6 8 9 9 8 9 9 9 8 7 8
0 0 0 1 2 3 4 4 4 4 5 8 10 10 8 6 4 4 3 3 3 2 1 1 2 3 3 2 1 1 1 1 2 4 6 7 7 5 5 4 4 3 3 4
1 1 1 2 4 5 6 6 6 6 7 10 10 9 6 4 3 2 1 1 1 0 0 1 3 2 1 1 0 0 0 0 0 2 4 5 4 3 2 2 1 0 0 1
2 2 3 4 5 6 6 6 6 7 8 9 9 7 5 2 1 1 0 0 0 0 1 2 2 1 0 0 0 0 0 0 0 1 2 3 3 3 3 3 3 2 1 0
3 3 4 5 6 5 4 4 5 7 7 7 6 5 3 1 0 0 0 0 0 0 1 1 1 0 0 0 0 0 0 0 1 2 3 3 4 5 4 4 5 5 3 2
3 4 5 6 6 4 4 4 6 7 7 6 4 2 1 0 0 0 0 0 0 0 1 1 1 1 1 1 0 0 0 0 1 3 4 4 5 5 6 6 6 6 4 3
2 4 6 6 5 3 3 5 6 6 6 5 3 1 0 0 0 0 0 0 0 1 2 2 2 3 2 1 0 0 0 0 1 3 4 4 4 4 5 6 5 4 3 3
1 2 5 6 5 3 4 5 6 6 5 4 2 1 0 0 0 0 0 0 0 1 2 2 2 2 2 1 0 0 0 1 1 3 3 3 3 3 4 4 4 3 2 2
0 2 4 5 4 4 4 5 5 4 3 1 1 0 0 0 0 0 0 0 0 1 1 1 1 1 1 0 0 0 0 1 1 3 3 3 3 3 3 3 3 3 3 2
1 2 4 4 4 4 4 3 2 2 1 0 0 0 0 0 0 0 0 0 0 0 0 0 0 0 0 0 0 0 0 1 2 3 3 3 3 3 3 3 3 3 3 3
3 3 3 3 3 3 2 1 1 0 0 0 0 0 0 0 0 0 0 0 0 0 0 0 0 0 0 0 1 1 1 2 3 3 3 3 3 3 3 3 2 2 2 1
3 3 3 3 2 2 1 0 0 0 0 0 0 0 0 0 0 0 0 0 0 0 0 0 0 0 1 1 2 2 3 3 3 3 2 2 2 2 2 1 1 1 1 0
1 2 2 1 1 0 0 0 0 0 0 0 0 0 0 0 0 0 0 0 0 0 0 1 0 0 1 2 2 2 2 2 2 1 1 1 1 1 1 0 0 0 0 0
0 1 1 0 0 0 0 0 0 0 0 0 0 0 0 0 0 0 0 0 0 0 0 0 0 0 1 1 1 1 1 1 1 0 0 0 0 0 0 0 0 0 0 0
0 0 0 0 0 0 0 0 0 0 0 0 0 0 0 0 0 0 0 0 0 0 0 0 0 0 0 0 0 0 0 0 0 0 0 0 0 0 0 0 0 0 0 0
0 0 0 0 0 0 0 0 0 0 0 0 0 0 0 0 0 0 0 0 0 0 0 0 0 0 0 0 0 0 0 0 0 0 0 0 0 0 0 0 0 0 0 0
0 0 0 0 0 0 0 0 0 0 0 0 0 0 0 0 0 0 0 0 0 0 0 0 0 0 0 0 0 0 0 0 0 0 0 0 0 0 0 0 0 0 0 0

GEFSNGP_con_prob3kmehi_312.txt.gz
EHI
0 0 0 0 0 0 0 0 0 0 0 1 2 4 6 10 16 20 23 25 27 27 27 27 26 22 21 23 22 20 21 21 21 20 18 16 15 15 15 14 13 11 9 9
0 0 0 0 0 0 0 0 0 0 0 1 3 4 6 9 14 19 21 24 26 26 26 26 25 22 20 22 22 22 22 21 21 20 18 17 16 16 15 14 13 12 11 12
0 0 0 0 0 0 0 1 1 1 1 2 3 3 6 9 13 17 19 22 23 24 26 27 25 22 19 19 20 20 19 18 17 16 15 15 16 16 15 14 15 15 15 15
0 0 0 0 0 0 0 1 2 1 2 3 3 3 6 11 14 16 17 18 20 23 25 26 24 21 18 16 15 14 13 14 14 15 14 14 16 17 16 16 17 18 18 18
0 0 0 0 0 0 0 1 1 1 2 3 3 4 9 15 17 17 17 19 21 22 24 25 23 20 17 14 12 11 11 13 16 17 17 17 17 19 19 19 19 19 18 17
0 0 0 0 0 0 0 0 0 1 3 5 4 5 12 18 20 19 21 24 25 22 23 25 24 21 17 15 13 11 12 15 17 17 17 18 19 21 21 22 21 18 16 16
0 0 0 0 0 0 1 1 1 2 4 6 6 8 13 18 21 22 25 27 26 23 23 25 25 23 22 21 17 14 14 16 17 16 16 17 19 21 22 22 21 19 17 15
0 0 0 0 1 1 2 3 2 2 4 6 10 13 15 18 22 25 26 26 24 23 25 27 26 26 26 25 20 17 16 17 18 17 16 17 18 20 21 20 19 18 17 15
1 0 0 1 2 2 3 3 3 4 4 7 11 15 18 20 23 26 29 29 26 26 28 29 28 26 25 23 20 18 17 19 21 21 20 19 18 18 18 17 14 13 12 12
2 1 0 1 1 1 2 3 4 4 5 8 12 18 23 23 23 26 33 34 30 28 29 29 26 23 21 20 19 18 17 19 21 21 20 19 18 17 17 15 12 9 8 8
3 2 2 2 1 1 2 3 3 4 6 9 15 22 26 25 23 26 32 35 31 29 28 27 24 21 19 18 18 17 15 15 16 16 17 17 15 14 13 12 9 6 5 6
4 5 5 5 3 3 4 4 4 5 8 11 16 23 27 26 24 24 28 30 29 28 26 25 23 19 17 15 15 15 14 11 9 10 12 12 12 10 9 7 5 3 2 2
7 8 8 7 7 7 8 7 7 9 11 13 18 22 24 25 24 22 22 24 25 25 24 22 19 16 14 13 13 12 11 8 7 7 9 9 9 8 7 5 3 1 0 0
9 11 11 10 11 12 12 11 12 13 15 17 19 21 21 21 20 18 17 17 19 21 20 17 14 12 10 11 10 9 8 7 6 7 7 7 7 7 7 6 3 2 1 0
11 12 13 13 14 14 14 15 16 17 18 19 19 19 19 18 17 15 14 13 13 15 14 11 9 7 5 6 7 8 7 6 6 6 7 6 6 6 6 5 3 2 1 1
11 12 13 13 13 14 15 18 20 20 20 19 17 15 15 15 13 12 11 9 8 8 8 8 6 5 2 2 5 6 6 5 3 4 5 5 5 6 6 4 2 1 1 1
10 10 11 10 11 13 16 18 21 21 20 16 13 11 10 10 10 8 7 5 4 5 6 7 7 5 3 2 3 4 4 3 2 2 3 4 4 5 5 3 2 1 1 1
8 8 8 9 11 14 16 17 18 18 16 13 10 8 7 6 7 6 4 3 4 5 6 6 6 6 4 2 2 3 3 2 1 1 3 3 3 4 3 3 2 1 2 2
6 7 7 9 13 15 16 15 14 13 12 10 9 8 7 6 5 5 4 3 4 5 5 5 4 4 4 2 1 1 2 2 1 2 3 3 3 2 2 2 2 2 2 3
6 6 8 12 15 15 15 13 11 10 10 10 9 9 8 6 5 4 3 2 2 2 3 3 3 3 3 2 1 1 2 3 3 3 3 2 2 1 0 1 2 1 2 3
8 8 10 14 15 14 12 10 9 9 9 10 9 8 7 5 3 2 1 1 1 0 1 1 1 2 2 2 1 2 3 3 3 2 1 1 1 0 0 1 1 1 2 3
11 11 11 12 12 10 9 9 8 9 9 9 7 5 4 2 1 1 0 0 0 0 0 0 0 1 1 1 1 2 2 2 1 1 0 0 0 0 1 2 2 3 3 3
12 11 10 8 8 8 7 7 8 8 8 6 4 2 1 1 0 0 0 0 0 0 0 0 0 0 0 0 0 1 1 1 0 0 1 1 1 1 2 3 3 3 3 3
9 8 6 6 6 6 6 6 6 6 5 4 2 1 0 0 0 0 0 0 0 0 0 0 0 0 0 0 0 0 0 0 0 0 1 2 2 2 2 2 2 3 3 3
5 4 3 4 5 6 6 5 4 4 3 3 1 0 0 0 0 0 0 0 0 0 0 0 0 0 0 0 0 0 0 0 0 0 1 1 1 1 1 1 1 2 2 1
2 1 1 2 3 3 4 4 3 3 2 2 1 0 0 0 0 0 0 0 0 0 0 0 0 0 0 0 0 0 0 0 0 0 0 0 0 0 0 0 1 1 1 0
1 0 0 1 1 2 3 3 3 2 1 1 0 0 0 0 0 0 0 0 0 0 0 0 0 0 0 0 0 0 0 0 0 0 0 0 0 0 0 1 1 1 0 0